Wind_Speed
24 24 25 25 25 25 25 24 24 24 24 23 23 22 22 21 21 21 22 23 24 25 26 27 28 28 29 29 29 29 29 29 28 27 26 26 25 25 24 24 24 24 24 25 26 26 27 27 28 29 29 30 31 31 32 33 33 34 34 35 35 35 36 37 38 39 40 41 41 41 41 41 40 40 41 40 39 39 40 40 40 39 38 39 40 41
25 25 25 25 25 25 25 24 24 24 24 24 23 23 23 23 23 24 25 26 27 28 29 30 31 31 31 31 31 31 31 31 30 29 29 28 27 26 26 25 25 25 25 25 25 25 26 26 27 27 28 29 30 30 31 32 33 34 34 35 36 36 37 37 38 39 39 40 41 42 42 42 43 43 42 40 39 38 38 38 39 39 39 39 40 40
26 26 26 26 26 26 26 25 24 23 23 23 23 24 24 25 26 27 28 29 30 30 31 31 32 32 32 32 32 32 32 31 31 30 30 29 28 27 27 26 26 25 25 25 25 25 25 26 26 26 27 28 28 29 30 31 32 33 34 35 36 37 37 38 38 39 39 40 40 41 42 42 42 42 42 41 39 38 37 37 38 38 38 38 38 38
26 26 26 27 26 26 25 24 24 23 23 23 24 25 27 28 29 30 30 31 32 32 32 32 33 33 33 33 33 33 32 32 31 31 30 29 28 28 27 27 27 26 26 25 25 25 25 25 25 26 26 27 27 28 29 30 31 32 33 34 35 36 37 38 38 39 39 39 40 40 40 41 41 41 41 41 41 40 38 38 37 38 37 36 36 35
26 26 27 27 26 26 25 24 23 23 24 25 26 28 29 30 30 31 32 33 33 33 33 33 33 33 33 33 33 33 33 32 32 31 30 29 28 28 28 27 27 27 27 26 26 25 25 25 25 25 25 26 26 27 28 29 30 31 32 33 34 35 36 37 37 38 38 39 39 39 39 39 39 40 40 41 41 41 40 39 38 38 37 36 36 35
26 26 26 26 26 26 25 24 24 25 26 28 29 30 30 31 31 32 33 33 34 34 34 34 34 33 33 34 34 34 33 33 32 31 30 29 29 28 28 28 28 28 27 27 26 26 25 25 25 25 25 25 26 27 27 28 29 30 31 32 33 34 35 36 36 37 37 38 38 38 38 37 38 38 39 39 40 40 40 40 39 39 38 38 37 36
26 26 25 25 25 26 25 25 25 26 28 30 31 31 31 31 31 32 33 33 34 34 34 34 34 34 34 34 34 34 34 33 32 31 30 30 29 29 29 30 29 29 29 28 28 27 26 25 25 25 25 25 26 26 27 28 28 29 30 31 32 33 34 34 35 36 36 36 36 36 36 36 36 36 37 37 38 39 40 40 40 40 40 40 39 38
26 25 25 25 26 27 27 26 26 27 28 29 31 31 32 32 32 32 33 33 34 34 34 35 35 35 34 35 35 35 34 34 33 32 31 31 31 31 31 31 32 31 31 31 30 29 28 26 25 25 25 25 25 26 27 28 28 29 30 31 31 32 33 33 34 35 35 35 35 35 35 35 35 35 35 36 36 37 39 40 40 41 40 41 41 40
25 26 26 26 26 27 27 27 26 26 27 27 28 30 31 32 33 34 34 34 34 33 34 35 35 36 35 35 35 35 35 34 33 32 32 32 32 32 33 33 34 34 33 33 32 31 30 28 27 26 25 25 26 26 27 28 28 29 30 30 31 31 32 32 33 33 33 34 34 34 34 34 34 34 34 34 35 36 38 39 40 41 41 42 42 41
25 25 26 26 25 24 25 26 26 26 26 26 27 28 29 31 33 35 35 35 35 34 34 34 35 37 37 36 36 35 35 34 33 32 32 32 33 34 34 35 35 36 36 36 35 34 33 31 29 27 26 26 26 26 27 28 28 29 30 30 31 31 31 31 31 31 32 32 32 33 33 33 33 33 33 34 34 36 37 38 40 41 42 43 43 42
25 25 24 24 23 23 23 24 25 26 26 27 27 28 28 29 31 33 35 36 36 36 35 35 35 36 37 37 36 35 35 35 34 34 33 33 34 35 35 36 37 37 38 38 37 36 35 33 31 29 28 27 27 27 27 28 28 29 29 30 30 30 30 30 30 30 30 31 31 32 32 33 33 33 33 34 34 35 36 38 39 41 43 44 44 43
24 24 23 22 23 23 24 25 25 26 27 27 28 28 28 28 29 31 32 33 35 36 36 36 35 35 35 35 35 35 34 33 34 34 35 36 36 36 36 37 38 39 40 40 39 38 37 35 33 31 29 28 28 27 28 28 28 29 29 29 29 29 29 29 29 30 30 30 31 31 31 32 32 33 34 34 34 35 36 37 39 41 43 45 46 45
23 23 23 23 24 25 25 26 26 27 26 26 27 28 28 29 29 29 30 31 32 33 35 36 36 35 34 33 32 32 32 32 33 34 36 36 36 35 36 37 38 40 41 41 41 40 38 36 34 32 30 29 29 28 28 28 29 29 29 29 29 29 29 29 29 30 30 31 31 31 30 30 31 32 33 34 34 35 35 36 38 40 43 45 46 46
23 24 24 25 25 26 26 26 26 26 26 26 26 27 27 28 28 29 29 30 31 32 34 35 35 34 33 31 29 28 29 30 32 35 36 36 35 35 36 37 38 40 41 42 42 41 39 37 35 33 32 30 29 29 28 29 29 29 29 29 29 29 29 29 30 30 31 31 31 30 29 29 29 30 31 32 33 34 34 35 36 38 40 43 45 46
24 25 26 26 26 26 25 25 25 25 26 26 26 27 27 27 27 27 28 30 31 32 33 33 33 33 31 29 27 27 28 29 31 34 36 36 36 35 36 37 39 41 41 42 42 41 39 37 36 34 32 31 30 29 29 29 29 29 29 29 29 29 29 30 30 30 31 31 30 30 30 29 29 29 29 30 31 32 33 33 34 36 38 40 43 45
24 25 26 27 26 26 25 25 25 25 26 25 25 25 25 26 26 27 28 29 31 31 31 31 32 33 32 30 28 28 29 31 32 32 34 36 37 37 37 38 40 41 41 41 41 40 39 37 36 34 33 32 31 30 30 30 30 30 30 30 30 30 30 30 30 30 30 30 29 29 29 29 29 29 29 29 30 31 32 32 33 34 35 37 40 42
24 25 25 26 26 25 25 24 24 24 25 24 23 23 24 25 26 28 28 29 30 30 29 30 30 30 32 33 32 30 31 33 34 34 35 37 39 39 39 39 39 41 41 40 40 39 38 37 36 35 34 33 32 31 31 30 30 30 30 30 30 30 30 30 30 29 29 29 29 29 29 29 29 29 29 30 31 32 32 31 31 32 33 35 37 40
23 24 24 25 25 25 25 24 24 24 23 23 23 24 25 26 27 28 29 29 30 30 30 30 29 28 29 32 34 34 34 33 35 36 37 39 41 41 40 39 38 39 40 40 39 39 38 38 37 36 36 35 34 33 32 32 31 31 31 31 31 30 30 30 29 29 29 30 30 30 30 30 30 30 31 31 32 33 33 32 32 31 32 33 35 37
22 23 23 23 23 24 24 23 23 23 23 23 24 25 26 27 27 28 30 30 30 29 29 29 29 29 30 31 35 37 35 34 34 36 37 39 42 42 40 37 37 37 38 39 39 39 39 39 38 38 38 37 36 35 34 34 33 33 33 33 32 31 30 30 29 29 29 30 30 31 32 32 33 33 33 33 34 34 34 34 33 32 31 32 33 36
21 21 21 21 22 23 23 23 22 22 22 23 24 25 26 28 29 30 30 31 30 29 29 29 30 31 33 35 37 37 36 34 34 36 37 38 40 40 38 35 35 36 38 39 40 39 39 39 40 40 40 39 38 37 36 36 36 35 35 35 34 33 31 30 29 29 30 31 31 33 34 34 34 34 34 35 34 34 35 35 34 33 32 31 32 34
19 20 19 19 20 21 23 23 22 21 21 22 23 24 27 29 31 31 31 32 31 30 30 31 32 33 35 36 36 36 36 35 34 35 35 35 36 36 36 34 34 35 37 39 39 39 38 39 40 41 42 41 40 39 38 38 38 38 37 37 35 34 33 31 31 31 32 33 34 35 35 35 35 35 35 34 34 34 34 35 35 34 33 31 31 32
18 19 19 19 19 20 22 22 21 21 20 21 23 25 28 30 32 33 32 32 32 32 32 32 34 35 34 35 36 37 36 34 31 31 32 32 34 35 35 34 33 35 36 37 37 37 37 39 41 42 43 42 41 41 40 40 40 39 39 38 37 35 34 33 33 33 34 35 36 36 36 35 34 34 34 33 33 33 33 34 34 34 34 32 31 31
18 19 20 19 19 20 20 21 21 21 21 23 25 28 31 32 33 34 35 33 33 33 33 34 34 34 33 34 36 36 35 31 27 26 28 30 33 34 34 33 33 34 35 35 35 35 37 39 41 43 43 43 42 42 41 41 41 40 39 38 37 36 35 35 35 35 36 36 37 36 36 34 33 33 33 33 33 33 33 33 34 34 34 32 31 31
18 19 19 19 19 19 19 20 21 23 24 26 29 31 32 33 33 33 33 32 32 32 32 33 32 33 34 35 34 33 31 27 24 24 26 29 31 33 33 32 32 33 33 33 34 35 38 40 42 42 42 42 42 42 41 41 40 39 38 38 37 36 36 36 37 37 37 37 37 36 35 34 33 32 32 32 32 32 32 32 33 33 33 33 31 30
17 18 18 18 19 19 20 22 24 25 27 29 31 32 32 31 31 30 30 30 30 29 29 29 30 32 34 33 32 30 28 25 23 23 25 28 31 33 32 31 31 32 33 35 36 38 39 40 40 40 40 41 41 41 41 40 39 39 38 38 37 37 37 37 38 38 37 37 36 36 35 34 33 32 32 31 32 32 32 32 32 33 33 33 31 29
18 18 19 19 20 21 22 24 25 26 27 28 29 29 29 28 28 28 28 28 27 26 26 28 29 30 31 31 30 29 28 26 25 24 26 27 30 32 32 30 29 31 33 36 38 38 37 37 37 38 40 41 41 41 40 40 40 40 39 39 39 38 38 38 37 37 37 36 36 35 34 33 32 31 31 31 31 31 32 32 32 32 33 33 31 29
19 20 20 21 22 22 23 24 25 25 25 25 24 24 24 25 25 25 25 25 25 25 25 26 28 28 29 29 29 30 30 29 27 26 25 26 29 31 30 30 29 31 34 36 37 36 34 34 36 38 40 41 41 41 41 41 42 42 41 41 40 39 38 37 36 36 35 35 35 34 33 33 32 31 30 30 30 31 31 31 31 31 32 32 31 29
20 20 20 21 21 21 22 22 21 21 21 20 20 20 21 21 22 22 23 23 23 23 23 24 26 28 29 30 32 34 34 32 28 25 22 24 27 29 30 30 31 31 33 34 35 36 35 35 36 37 39 39 40 42 43 43 44 43 42 41 39 38 36 35 34 34 34 34 33 33 32 32 31 30 29 29 29 30 30 30 30 30 31 31 30 28
19 19 19 19 19 19 19 19 19 19 19 19 19 19 19 20 20 20 21 22 22 22 22 23 25 28 31 33 35 36 34 30 26 22 20 22 26 29 30 30 30 30 31 33 36 38 39 36 34 34 35 37 40 42 44 44 44 43 41 40 38 36 34 33 33 33 33 33 33 32 32 31 30 29 28 27 28 28 29 29 29 29 30 30 29 27
18 18 18 18 18 19 19 19 19 19 19 19 18 18 19 19 19 19 19 20 21 22 24 26 28 30 31 33 33 32 30 28 24 21 20 23 26 28 29 29 29 29 30 31 34 36 38 37 35 33 33 36 40 43 45 44 43 42 40 38 36 35 33 33 33 33 33 33 33 32 31 30 28 27 26 26 26 27 27 27 27 28 29 29 29 27
19 19 19 19 19 19 20 19 19 19 18 18 18 18 18 18 18 18 18 19 21 23 25 27 29 30 29 29 27 27 27 27 26 24 23 25 27 28 29 30 30 31 32 31 30 31 34 36 37 37 36 39 42 44 44 43 42 40 39 38 36 34 33 33 33 34 34 33 32 31 30 28 27 25 25 24 25 25 26 26 26 26 28 29 30 28
21 21 21 20 20 20 19 19 19 18 18 18 18 18 18 18 18 18 18 19 20 22 24 26 27 28 27 26 25 26 28 29 29 26 25 26 28 31 32 32 33 34 34 32 30 29 29 32 37 42 42 43 44 44 43 42 40 39 38 37 36 35 34 34 34 35 35 34 32 31 29 27 25 24 23 23 24 24 25 25 25 25 27 29 30 30
22 21 21 20 20 19 19 19 18 18 18 18 18 18 18 18 18 18 19 19 20 21 22 24 25 26 27 27 27 29 30 29 28 26 25 27 30 33 34 33 33 33 34 33 31 30 30 32 36 41 43 44 44 44 42 41 39 37 37 36 36 36 35 35 35 35 34 34 33 31 28 26 24 23 22 22 23 23 23 24 24 24 26 28 30 30
21 21 21 20 19 19 19 18 18 17 17 17 17 17 18 18 18 18 18 18 19 20 20 22 23 24 26 27 28 29 30 30 29 28 28 28 30 32 33 33 32 31 32 32 32 32 32 33 35 37 40 42 43 43 42 41 39 38 37 36 37 37 37 36 35 34 34 34 33 32 29 27 24 23 22 22 23 23 23 23 23 23 25 27 28 28
21 20 20 20 19 19 19 18 18 17 17 17 17 18 18 18 18 18 18 18 18 19 19 20 22 23 24 26 27 29 31 32 31 29 28 27 28 30 31 32 31 31 31 31 32 32 33 34 35 35 36 38 40 41 42 41 40 39 38 37 37 37 37 36 35 34 34 34 33 33 31 29 26 25 24 23 23 23 22 22 22 23 24 26 26 26
20 20 20 20 20 20 19 19 18 18 18 18 18 18 18 18 18 18 18 18 19 19 20 20 21 22 23 25 27 29 31 32 30 28 26 25 25 27 30 31 31 30 30 31 31 31 32 34 35 34 34 34 36 38 40 41 41 39 38 37 37 37 36 35 35 34 34 34 34 34 33 31 29 27 25 24 24 23 22 22 22 22 24 25 24 23
20 20 20 20 20 20 20 20 20 19 19 19 19 19 19 19 19 19 19 20 20 20 20 21 21 22 23 24 26 28 30 30 29 27 24 23 23 25 28 29 29 29 29 29 30 31 31 33 34 34 34 33 32 34 38 40 41 39 38 37 37 37 36 35 34 33 33 34 35 35 34 33 31 29 27 25 24 23 22 22 21 22 23 23 23 22
20 20 21 21 21 21 21 21 21 20 20 20 20 21 21 21 21 21 22 22 22 22 23 23 23 23 23 24 25 26 27 27 26 24 22 21 21 23 25 27 27 27 26 26 27 28 29 31 32 33 34 33 34 36 38 39 40 39 38 37 36 36 36 34 33 32 32 33 34 35 34 34 32 30 28 27 25 24 23 22 22 22 22 23 22 22
21 21 22 22 22 22 22 22 21 21 21 21 22 22 23 23 24 24 24 24 24 24 24 24 25 25 25 25 25 24 24 24 23 22 21 21 21 21 23 24 25 25 24 24 24 25 27 29 31 32 33 35 37 38 38 38 38 39 39 38 37 36 34 33 32 31 31 32 34 35 35 34 32 31 30 28 27 25 24 23 22 22 22 23 23 22
21 22 22 22 22 22 22 22 22 22 22 23 23 24 25 25 26 26 26 25 25 25 25 25 25 26 26 26 25 25 24 24 23 22 21 21 21 21 21 22 22 23 23 23 23 24 25 28 30 32 33 35 36 38 38 38 38 38 38 38 38 36 34 33 32 31 31 32 33 34 35 34 33 32 31 29 28 27 26 24 23 22 22 23 24 23
21 22 22 22 22 22 22 22 22 23 24 24 25 26 26 26 27 27 27 27 26 26 26 26 27 27 27 26 26 26 25 25 24 23 22 22 21 20 20 20 21 21 22 23 23 24 25 27 29 31 32 34 35 36 37 37 37 36 36 36 36 35 34 32 32 31 32 32 33 33 34 34 33 32 31 30 29 27 26 25 23 22 22 22 22 22
21 22 22 22 22 22 23 23 24 24 25 25 26 27 27 27 27 27 28 28 28 28 27 28 28 29 29 28 27 26 26 25 25 24 23 22 21 20 20 20 20 21 22 23 24 25 26 27 29 30 31 32 33 35 36 37 36 35 34 34 33 34 34 33 32 31 32 33 33 33 33 34 34 33 32 31 29 28 26 24 23 22 22 22 22 21
21 22 22 23 23 24 24 25 25 26 26 27 27 27 27 27 27 27 28 28 28 28 28 29 29 30 31 31 30 28 26 25 25 24 24 23 21 21 20 20 21 21 23 24 26 28 29 29 30 30 31 31 32 33 35 36 36 35 32 31 31 32 34 34 33 32 32 33 33 33 33 34 34 34 32 31 30 28 26 24 22 21 20 21 21 21
21 22 22 23 24 25 25 26 26 26 27 27 28 28 27 27 27 27 28 28 29 29 29 30 30 31 32 32 31 30 28 26 24 24 24 23 22 22 22 22 22 23 24 26 27 29 30 31 31 31 31 31 31 33 34 35 35 34 31 29 28 29 31 33 34 34 34 34 34 33 33 33 33 33 32 31 30 28 27 25 22 20 19 19 20 20
21 22 23 24 25 25 26 26 26 27 27 28 28 28 28 28 27 28 28 29 30 30 30 30 31 31 32 32 32 31 29 27 25 24 23 23 23 23 23 24 24 25 26 28 29 30 30 31 32 33 32 32 31 32 33 33 33 32 30 28 28 29 30 32 33 34 35 35 35 34 33 33 33 33 32 31 30 29 28 26 23 21 19 18 19 19
22 23 24 24 25 25 26 26 27 27 28 28 29 29 29 29 29 29 29 30 30 31 31 30 30 30 31 32 32 32 31 29 27 24 23 22 22 23 24 25 26 27 28 30 31 31 32 31 31 32 32 32 32 32 32 31 30 30 29 28 28 29 31 32 33 34 35 36 36 35 34 33 33 32 32 31 30 29 28 25 23 21 19 18 19 19
21 22 23 24 25 26 26 26 27 28 29 29 29 29 29 29 30 30 30 30 30 31 31 30 30 30 30 31 31 32 32 32 30 26 24 22 22 23 24 25 27 29 30 31 32 33 33 32 31 30 29 29 30 31 31 29 28 27 27 27 28 30 32 33 34 35 35 36 36 35 34 33 33 32 31 30 30 29 28 25 23 20 18 18 19 20
20 21 23 24 25 26 26 27 28 28 29 30 30 30 30 30 30 29 30 30 30 30 31 31 30 30 30 31 31 31 32 32 31 29 27 25 24 24 25 27 29 30 32 33 34 34 34 33 32 30 28 26 27 28 29 28 26 25 26 26 28 30 32 34 35 36 36 36 35 34 34 33 32 31 30 30 30 29 28 26 23 20 18 18 18 20
20 21 22 23 25 26 27 27 28 29 30 30 31 31 30 30 30 29 30 30 30 30 30 30 30 30 31 31 31 32 32 32 31 30 28 28 28 28 29 30 31 33 34 35 35 35 35 34 32 30 27 24 23 24 25 26 25 25 25 26 28 30 32 34 35 36 36 36 35 33 32 31 30 29 29 29 29 28 28 26 24 21 18 17 18 19
20 21 22 23 25 26 27 27 28 29 30 30 31 32 32 31 31 31 31 31 31 31 30 30 30 30 31 32 32 32 32 32 31 30 29 29 29 30 31 32 33 34 36 36 37 37 36 35 34 31 27 23 20 20 22 24 25 25 26 27 28 29 31 33 35 36 36 36 34 32 30 29 28 27 27 27 27 27 27 26 24 22 19 18 18 18
20 21 22 23 24 25 26 27 28 29 30 31 31 32 32 32 32 32 31 31 31 31 31 30 30 30 31 32 33 33 32 32 31 30 29 29 29 30 32 33 33 34 35 36 37 36 35 34 33 31 29 24 20 18 19 21 23 26 27 28 28 29 30 32 34 36 36 34 32 30 28 27 27 27 26 26 26 26 26 26 25 23 21 19 19 19
Wind_Direction
310 312 314 315 316 317 319 320 321 320 320 319 319 320 320 321 322 324 327 329 331 332 333 334 335 335 335 336 336 336 335 335 334 333 332 331 329 327 325 322 320 317 315 313 311 310 310 309 308 308 307 307 307 306 306 305 305 304 303 302 300 299 297 295 293 291 289 288 287 287 287 287 286 284 282 279 276 273 270 267 266 266 267 267 268 271
312 314 315 316 317 318 319 320 320 320 320 320 321 322 323 325 327 330 332 334 336 337 337 337 337 337 337 337 337 337 336 336 335 335 334 333 331 329 327 325 322 319 317 315 313 312 311 310 309 308 308 307 307 306 305 305 304 304 303 302 301 301 300 299 298 296 294 292 291 290 289 288 287 286 284 282 278 275 271 268 265 264 264 265 266 268
314 315 316 316 316 317 318 319 320 320 320 321 323 326 328 331 333 335 336 338 338 338 339 338 338 338 337 337 337 337 336 336 336 336 335 333 332 330 328 326 324 322 320 318 316 314 313 311 311 310 309 308 307 306 305 304 304 303 302 302 301 301 301 301 300 300 299 297 296 294 292 291 290 288 286 283 280 277 273 269 265 263 262 263 265 268
313 314 315 314 314 315 316 318 319 321 322 325 328 331 334 336 337 338 338 339 339 339 338 338 337 337 336 336 336 336 336 336 336 335 334 333 331 330 328 327 326 324 323 321 319 317 315 314 313 311 310 309 308 307 306 304 303 303 302 301 301 301 301 301 301 302 301 301 299 298 296 295 293 290 287 284 281 278 275 270 266 262 260 262 266 268
311 312 312 313 313 313 315 318 321 325 327 331 334 336 338 338 338 338 338 338 338 337 337 336 336 335 335 335 335 335 335 335 334 334 332 331 330 329 329 328 327 326 325 324 322 320 318 316 315 314 313 312 311 309 307 306 304 303 302 301 301 301 301 301 302 302 303 302 302 301 300 298 296 293 289 286 283 280 277 272 267 262 260 260 263 265
308 310 310 311 312 314 317 322 328 331 334 336 337 338 339 338 338 337 337 336 336 335 335 334 334 334 333 334 334 334 334 333 333 332 331 331 330 330 330 329 329 328 327 326 325 323 321 320 318 317 316 315 314 312 311 309 307 305 303 302 301 301 301 302 302 302 303 303 303 303 302 300 298 295 291 287 284 282 279 275 270 265 261 259 260 263
306 307 309 311 314 318 324 330 334 338 339 339 338 338 337 336 335 335 334 334 333 333 332 332 332 332 332 332 332 332 332 332 332 332 331 331 331 331 331 331 330 330 329 328 327 326 324 323 321 320 319 318 317 316 315 313 311 309 306 304 303 302 302 302 302 303 303 303 303 303 302 301 298 295 292 289 286 283 281 278 274 268 263 260 260 261
307 310 314 319 323 327 331 334 337 339 339 338 337 335 334 334 333 332 332 331 331 331 331 331 331 331 331 331 332 332 332 332 332 333 332 332 332 332 332 332 331 331 331 330 329 328 327 325 323 322 321 320 319 319 318 316 314 312 310 308 306 304 303 303 303 303 303 303 303 303 302 300 298 296 293 289 286 284 282 279 276 272 266 262 260 261
314 318 322 326 330 332 332 333 335 336 336 335 333 332 332 331 331 330 330 330 330 330 331 331 330 330 330 330 331 331 332 332 333 334 334 333 333 332 332 331 331 331 331 331 330 329 328 326 324 323 321 320 320 319 319 317 316 314 312 310 308 306 305 304 303 303 302 302 303 302 302 300 299 296 293 290 286 284 282 281 278 275 270 265 262 261
321 324 327 328 329 329 328 327 329 331 332 331 330 330 330 330 330 329 329 329 330 330 331 331 331 330 330 330 331 332 332 333 333 334 334 333 332 331 330 330 330 330 330 330 329 329 327 326 324 323 321 320 320 319 318 317 315 314 312 311 309 308 307 305 304 303 303 302 302 302 301 301 299 297 294 290 286 283 282 281 280 277 273 269 265 263
323 324 324 324 324 324 324 323 325 327 328 329 329 329 330 330 330 330 329 329 330 331 331 331 330 330 330 330 331 331 332 332 332 332 332 331 330 330 329 328 327 327 328 328 328 327 326 325 324 322 321 320 319 318 317 315 314 313 312 311 310 309 308 307 305 304 304 303 302 302 301 300 300 298 295 291 287 283 280 280 279 277 275 271 267 264
320 321 321 320 320 320 321 322 324 326 327 329 329 330 331 331 332 331 330 329 329 330 330 329 329 329 329 330 330 331 331 331 330 329 329 329 329 329 328 326 325 325 325 325 325 325 324 324 323 323 323 321 320 318 316 315 313 313 312 312 312 311 310 309 308 306 305 304 302 301 301 300 300 300 298 295 291 285 281 279 277 276 275 272 269 266
320 320 319 318 318 319 321 323 325 327 328 330 330 330 329 331 332 332 330 328 327 328 328 327 327 327 328 329 330 330 329 328 327 326 326 326 326 326 325 323 321 321 322 322 322 322 323 323 323 323 323 322 321 319 317 316 315 314 313 313 313 313 313 311 310 308 306 304 303 302 301 300 301 301 301 299 297 293 287 282 278 276 274 272 270 268
319 319 318 317 318 320 323 325 326 327 327 329 330 330 330 331 332 332 329 327 326 327 327 326 325 325 326 327 328 327 326 324 323 323 323 322 323 322 321 318 317 317 319 319 320 320 321 322 323 323 324 324 323 321 320 319 318 317 316 315 315 315 314 313 311 308 306 304 303 302 302 302 301 301 301 301 299 297 293 289 283 279 276 274 272 270
317 316 316 316 317 320 323 325 326 326 327 329 331 332 332 332 331 330 328 326 325 326 326 325 324 323 323 323 324 324 322 320 320 320 320 320 319 319 318 315 314 315 317 317 318 318 320 321 322 323 324 324 324 324 324 323 322 320 318 317 316 315 314 313 311 308 306 304 303 303 303 303 303 302 301 300 300 298 296 293 288 284 279 276 273 271
315 315 314 315 317 319 323 325 325 325 327 329 331 331 330 328 327 327 326 325 325 325 325 324 323 321 320 320 321 321 321 320 319 319 318 317 317 316 315 314 313 314 315 316 317 318 319 321 322 323 324 324 325 326 326 325 324 322 320 318 316 315 314 312 311 309 306 305 304 304 304 303 302 302 302 301 300 299 297 293 289 286 282 279 276 273
314 314 314 315 316 319 323 324 325 326 328 329 329 328 326 325 325 324 324 323 323 323 323 322 321 319 318 318 319 320 321 320 320 318 317 315 314 315 315 314 313 314 316 316 317 318 319 320 321 322 323 324 325 326 326 325 324 323 321 320 318 316 314 312 310 309 308 308 307 306 304 303 303 303 302 302 301 299 297 293 288 285 283 280 278 275
312 313 314 315 317 319 322 324 326 328 328 327 326 325 323 322 322 321 321 321 321 320 319 318 317 314 313 313 315 317 320 320 319 317 315 313 313 314 316 315 315 316 316 317 317 318 319 320 321 322 322 323 324 324 324 324 324 323 322 321 319 317 314 312 311 310 310 309 309 308 308 308 307 306 305 303 302 300 298 294 290 286 283 281 279 276
310 311 313 315 317 320 321 323 325 327 327 325 324 323 321 320 319 318 318 318 317 317 315 314 312 310 308 307 311 316 319 318 316 314 312 311 312 314 316 317 317 316 316 316 316 317 318 319 320 321 321 322 322 322 322 322 322 322 321 320 319 317 316 314 312 312 311 310 310 310 311 311 310 308 306 304 303 302 300 298 293 289 284 281 279 277
308 309 312 316 318 319 319 321 325 327 326 324 322 320 318 316 315 315 315 315 314 313 311 310 308 307 307 308 311 314 316 315 313 311 310 310 312 314 316 316 316 314 314 314 314 315 316 317 318 319 320 320 320 320 321 321 321 320 320 319 318 318 316 315 314 314 313 313 312 312 312 311 310 308 306 304 303 302 301 299 296 291 285 281 279 277
305 307 311 315 317 317 317 321 325 327 325 322 319 315 312 311 311 312 312 312 312 311 310 308 307 307 308 308 308 310 312 312 311 311 311 310 310 312 314 315 313 312 311 311 312 313 314 315 316 317 318 318 319 319 319 320 320 319 318 318 317 317 316 316 314 313 313 314 314 314 312 311 309 308 305 303 302 301 300 300 298 294 288 282 278 276
303 307 311 314 316 317 318 322 324 323 319 315 311 308 306 307 308 309 309 310 309 308 307 306 306 307 307 306 306 308 310 310 311 312 312 308 307 308 311 312 311 309 308 308 310 311 312 312 313 315 316 316 317 318 319 319 319 318 317 317 316 316 316 315 314 312 312 313 314 314 313 311 309 306 304 303 301 300 300 300 299 296 290 283 278 275
305 309 312 315 316 317 317 316 314 310 305 302 300 299 300 302 304 305 306 307 306 306 306 307 307 307 306 304 305 307 310 312 315 315 311 305 304 305 308 309 308 307 305 305 307 308 309 310 311 313 315 316 317 318 319 319 319 319 318 317 316 316 316 316 315 314 314 314 314 314 312 310 308 306 304 302 301 301 301 301 300 297 292 286 279 275
307 310 311 311 311 308 305 301 297 294 293 293 294 296 298 301 302 303 305 305 305 306 307 308 307 306 305 304 305 308 311 314 315 314 309 303 301 302 304 305 306 304 303 303 304 306 308 309 311 313 314 316 318 319 320 320 320 320 319 319 318 317 316 315 314 314 314 314 314 313 312 310 308 305 304 302 302 301 302 302 301 299 295 289 282 276
303 302 300 299 296 291 287 285 285 287 290 293 296 299 301 303 304 304 305 306 307 308 308 307 305 304 305 307 308 309 310 312 310 308 305 302 300 300 301 303 303 302 301 302 304 306 308 310 311 312 313 316 318 320 321 322 322 321 321 320 319 317 316 315 314 313 313 313 313 313 311 309 307 305 303 302 302 302 302 303 302 301 297 291 285 278
302 299 295 293 291 289 287 288 290 293 295 298 300 302 304 305 305 306 307 307 309 310 309 307 305 305 307 308 308 307 308 308 306 303 302 301 299 299 300 301 302 301 301 303 306 308 309 309 309 310 312 316 319 321 322 323 323 322 321 319 318 317 316 315 314 314 314 314 314 313 311 309 307 305 304 302 302 302 302 303 303 301 298 294 288 281
311 307 304 302 300 300 300 300 301 301 302 302 303 304 305 305 306 307 307 309 311 312 310 309 307 306 306 306 305 304 306 306 305 304 303 301 298 297 298 299 301 302 303 305 307 308 307 306 306 308 312 316 320 322 323 323 323 321 320 319 318 318 317 317 317 317 317 317 316 314 312 310 307 305 304 303 302 302 302 303 303 302 299 295 291 285
316 313 311 310 308 307 307 307 307 307 307 307 307 307 306 306 307 307 308 311 313 313 310 307 305 304 304 303 303 304 306 306 307 308 306 301 296 294 296 299 302 304 306 306 307 306 305 304 305 308 313 317 320 322 323 323 322 321 321 321 321 321 321 322 322 322 322 321 319 316 313 311 308 306 304 303 302 302 303 303 303 302 299 296 293 289
317 315 314 313 312 312 312 311 312 312 311 311 311 310 309 308 308 309 311 312 312 309 305 302 299 299 300 301 303 306 307 308 311 312 308 300 295 295 298 302 305 307 307 307 307 307 306 305 306 308 312 315 318 320 322 322 323 323 323 324 325 326 327 328 328 327 326 325 322 319 315 312 309 306 304 303 302 302 303 303 303 302 299 298 298 297
319 318 318 317 317 316 315 315 314 314 313 313 312 311 311 310 310 310 310 308 304 301 299 298 297 298 299 302 305 306 306 309 312 313 308 303 300 299 302 304 305 305 305 307 308 308 307 307 307 308 310 313 317 319 321 323 324 325 326 328 329 330 331 331 331 330 329 327 325 322 318 314 309 306 304 302 302 302 302 303 302 301 300 302 305 307
322 322 321 320 319 317 316 315 315 314 314 314 314 313 313 312 312 309 306 302 298 297 297 297 298 300 301 302 302 301 301 306 310 312 309 305 303 302 302 302 301 299 299 302 305 306 305 306 308 309 311 313 316 319 321 323 325 326 328 329 329 330 332 332 331 330 329 329 327 324 320 316 311 306 303 302 302 302 302 302 301 300 301 305 309 312
322 322 321 319 318 317 316 316 316 317 317 317 317 316 315 314 312 309 304 301 299 297 296 297 298 300 300 299 296 295 296 303 308 311 309 305 302 299 299 299 299 298 299 300 299 298 298 300 304 308 311 312 315 318 320 322 324 326 328 328 328 328 330 330 329 329 329 329 329 326 323 318 312 307 303 302 302 302 302 302 301 301 302 306 310 313
320 320 319 318 318 319 320 321 322 322 322 321 320 319 317 315 312 309 306 303 300 298 296 297 298 299 300 299 297 295 297 301 305 308 306 303 301 301 302 303 302 302 303 302 299 295 293 293 298 304 308 311 313 316 318 320 323 325 326 326 326 326 327 328 328 328 329 330 330 329 325 320 313 307 304 302 302 303 304 304 303 303 304 307 309 311
318 317 318 319 321 323 325 326 327 327 326 325 323 321 319 316 313 310 308 305 302 300 298 299 299 300 301 300 299 298 299 301 304 306 307 307 307 308 309 309 308 307 306 304 302 299 296 295 297 301 305 309 311 313 315 317 321 323 324 324 324 324 325 326 327 329 331 332 332 331 329 324 317 310 306 304 304 305 307 307 308 307 306 306 307 309
317 318 321 324 326 328 329 330 331 330 329 328 326 323 321 318 315 313 311 309 307 305 303 302 301 301 301 300 298 297 299 302 307 310 312 314 314 314 313 312 310 309 306 304 302 301 299 299 300 302 304 307 309 311 313 316 320 322 323 323 323 323 324 326 328 330 332 334 335 334 333 329 322 315 310 307 307 308 309 311 311 308 305 303 303 307
320 324 328 331 333 334 334 334 334 334 332 331 329 327 325 322 320 318 317 315 314 312 310 308 306 305 304 302 299 298 300 305 310 312 314 317 318 316 313 311 310 309 306 304 302 301 301 302 304 305 305 305 306 309 313 317 320 322 323 323 324 324 325 326 328 331 333 335 337 337 336 333 328 321 314 310 309 309 310 311 310 307 303 301 302 307
326 330 334 336 338 338 338 338 337 336 336 334 333 332 330 328 326 324 323 322 321 320 319 317 315 312 309 305 303 302 303 307 309 312 315 319 321 319 314 311 311 310 307 304 303 304 304 305 306 307 306 304 304 306 311 316 320 322 323 325 325 324 325 326 328 331 334 336 337 338 338 336 332 326 319 314 312 311 310 309 308 305 303 302 304 311
333 337 340 341 341 341 340 340 339 339 338 337 336 336 335 333 332 331 330 329 328 327 326 324 321 318 314 310 306 305 306 307 310 314 318 323 325 323 318 314 312 312 310 309 309 309 308 305 304 304 304 304 305 307 311 315 318 321 323 325 325 324 324 326 328 330 333 336 337 338 338 337 335 330 325 321 317 315 313 311 309 307 305 305 308 315
339 342 344 343 342 342 341 341 340 340 339 339 338 338 338 337 336 335 333 332 331 330 329 327 324 321 319 316 313 312 312 314 317 321 326 329 329 327 322 317 314 314 314 315 315 314 310 305 302 301 302 304 306 309 313 315 317 319 321 323 323 323 324 325 327 329 332 335 337 338 338 338 337 334 331 327 324 322 319 315 312 309 308 309 313 320
343 345 345 344 342 342 341 341 341 340 340 340 340 340 340 339 338 336 334 332 331 331 330 328 326 323 322 321 321 321 321 323 325 328 331 332 332 329 324 319 317 316 317 317 317 315 312 307 305 304 304 303 305 307 311 313 315 317 318 317 318 320 323 325 326 328 331 333 335 336 337 338 338 336 335 332 329 326 323 318 314 310 308 309 314 320
345 345 344 342 342 343 343 342 342 341 341 341 341 342 342 341 338 336 333 332 332 331 331 329 328 326 325 324 325 326 327 328 329 330 331 332 331 329 325 322 319 318 318 318 317 315 314 310 308 307 306 306 306 307 308 311 313 315 314 312 313 318 322 324 326 328 330 331 333 334 336 337 337 336 335 332 329 326 322 318 314 309 307 306 309 317
345 344 342 342 343 344 343 343 342 342 342 341 342 342 342 341 339 337 335 334 333 334 333 332 330 329 327 327 328 329 329 328 328 328 328 329 329 329 326 324 322 321 321 320 319 318 317 314 311 308 307 307 307 306 306 309 312 314 314 313 315 319 322 323 326 328 330 330 331 333 334 335 335 334 332 330 326 323 320 317 313 308 305 303 305 312
343 342 342 343 344 344 344 344 344 343 342 341 341 341 341 340 339 337 335 333 333 334 335 335 333 330 329 328 329 330 329 328 327 326 326 326 327 327 327 325 324 323 323 322 321 320 319 317 314 312 311 311 308 305 304 306 310 313 315 316 317 317 316 320 325 328 329 329 330 331 332 332 332 331 329 326 323 320 319 317 313 309 304 303 305 310
342 342 343 344 344 344 344 344 344 343 341 338 337 338 340 339 338 337 335 334 334 335 335 335 333 330 328 327 329 330 329 328 327 326 325 326 327 327 327 326 325 325 325 323 320 319 320 318 317 316 315 313 309 305 303 304 306 310 313 317 317 314 312 316 322 326 327 327 328 329 330 331 330 329 326 324 322 321 320 319 316 311 306 304 306 310
343 343 343 344 343 343 342 342 341 340 338 336 335 336 339 339 338 337 336 334 334 334 334 333 331 327 324 325 328 330 328 328 327 327 326 327 327 327 327 326 326 326 325 324 322 319 316 315 316 317 318 315 310 305 302 303 305 308 312 316 317 317 317 320 322 323 323 324 325 326 328 329 329 328 327 325 324 323 322 321 319 316 311 308 308 311
343 342 342 341 341 340 340 340 339 337 336 335 335 336 338 338 338 337 336 334 333 332 331 330 328 324 322 324 326 328 329 328 328 327 327 327 327 327 327 326 326 325 324 323 322 320 318 316 315 316 316 314 310 307 306 306 307 308 312 315 317 318 318 319 320 320 321 321 323 325 327 328 329 328 328 327 326 325 323 323 322 321 317 314 312 313
342 341 340 340 339 339 339 338 338 336 336 335 335 335 337 337 337 336 334 333 331 329 328 328 326 324 322 324 325 326 325 326 327 327 327 327 326 326 326 325 325 325 323 322 320 320 319 318 318 317 314 310 307 308 311 313 312 311 312 314 316 315 315 316 317 319 321 321 322 324 326 327 328 329 329 328 327 325 324 323 324 324 324 321 318 316
341 340 340 340 339 338 338 338 337 336 335 335 334 335 336 336 335 332 330 330 329 328 327 326 326 325 324 324 325 325 324 323 324 325 326 325 325 324 324 324 323 323 322 321 320 319 319 319 318 317 314 310 307 307 311 315 315 314 313 313 312 311 310 311 314 317 320 321 322 324 325 325 327 328 329 329 328 326 325 325 325 326 327 326 323 320
340 340 340 340 339 339 338 338 337 336 335 335 334 334 334 335 333 330 329 328 328 327 327 326 325 324 323 323 324 325 324 324 324 325 325 324 323 322 322 322 322 323 322 322 322 321 321 320 319 317 316 313 310 309 311 314 314 313 311 309 307 306 306 308 311 315 317 319 321 322 322 323 325 327 329 329 329 328 327 326 325 326 327 326 323 320
341 341 340 339 339 338 338 337 336 335 335 334 334 333 332 332 332 331 329 328 327 327 327 327 325 323 322 322 323 323 323 323 323 324 324 324 323 323 323 323 325 325 325 325 324 324 323 322 321 320 319 317 314 311 309 310 311 309 307 304 303 303 304 306 309 312 315 317 318 319 320 321 323 326 328 329 329 328 326 325 324 324 324 323 321 318
343 342 341 339 338 338 337 336 335 335 334 334 332 332 331 330 330 330 329 328 327 327 327 327 325 323 320 320 321 322 323 323 323 323 325 325 325 324 325 326 327 328 327 326 325 325 324 323 322 321 321 320 318 313 307 305 305 304 302 302 303 303 303 305 307 310 313 314 316 316 318 319 322 324 327 327 327 327 325 324 322 322 322 323 321 319
Height
1479 1478 1477 1477 1476 1475 1475 1474 1474 1472 1471 1471 1471 1470 1469 1469 1468 1467 1466 1464 1463 1461 1460 1459 1458 1457 1456 1455 1454 1453 1452 1451 1451 1450 1449 1448 1447 1446 1446 1445 1443 1442 1441 1440 1439 1438 1436 1435 1434 1433 1432 1431 1429 1428 1427 1426 1424 1423 1422 1421 1420 1419 1418 1417 1416 1416 1415 1414 1413 1412 1411 1411 1409 1408 1408 1407 1408 1408 1408 1408 1408 1408 1408 1409 1408 1408
1477 1476 1476 1475 1474 1474 1473 1473 1472 1471 1470 1470 1469 1468 1467 1466 1465 1464 1463 1461 1460 1459 1457 1456 1455 1454 1453 1452 1451 1451 1450 1449 1448 1447 1446 1446 1445 1444 1443 1442 1441 1440 1439 1438 1437 1436 1435 1433 1432 1431 1430 1428 1427 1426 1425 1423 1422 1421 1420 1419 1417 1416 1415 1414 1413 1413 1412 1411 1410 1409 1408 1407 1406 1406 1405 1405 1405 1405 1405 1405 1405 1405 1405 1405 1405 1405
1475 1475 1474 1473 1473 1472 1472 1471 1471 1471 1469 1468 1467 1466 1465 1463 1461 1460 1459 1458 1457 1456 1455 1454 1453 1452 1451 1450 1449 1449 1447 1447 1446 1445 1444 1443 1442 1442 1441 1440 1439 1438 1437 1436 1435 1434 1432 1431 1430 1429 1428 1426 1425 1424 1423 1421 1420 1419 1417 1416 1415 1414 1413 1412 1411 1410 1409 1408 1407 1406 1405 1404 1404 1403 1402 1402 1401 1401 1401 1401 1401 1401 1401 1401 1401 1402
1474 1473 1472 1472 1472 1471 1471 1470 1470 1469 1468 1466 1465 1463 1462 1460 1459 1457 1456 1456 1454 1453 1453 1452 1451 1450 1449 1448 1447 1446 1446 1445 1444 1443 1442 1441 1441 1440 1439 1437 1436 1436 1435 1434 1432 1431 1430 1429 1428 1427 1426 1424 1423 1422 1421 1419 1418 1416 1415 1414 1413 1411 1410 1409 1408 1407 1406 1405 1404 1403 1402 1402 1401 1400 1400 1399 1398 1398 1398 1398 1397 1398 1398 1398 1398 1399
1473 1472 1471 1471 1470 1470 1469 1469 1468 1466 1465 1464 1462 1461 1459 1458 1456 1455 1454 1453 1452 1451 1451 1450 1449 1448 1447 1446 1445 1444 1444 1443 1442 1441 1441 1440 1439 1437 1436 1436 1435 1433 1432 1431 1431 1429 1428 1427 1426 1425 1423 1422 1421 1420 1418 1417 1416 1414 1413 1412 1411 1409 1408 1407 1406 1405 1404 1402 1401 1401 1400 1399 1398 1397 1397 1396 1396 1395 1395 1394 1394 1394 1394 1395 1395 1395
1472 1471 1471 1470 1469 1468 1467 1466 1466 1464 1462 1461 1459 1458 1457 1456 1454 1453 1452 1451 1451 1450 1449 1448 1447 1446 1446 1444 1443 1443 1442 1441 1440 1440 1439 1438 1436 1436 1435 1433 1432 1431 1431 1430 1428 1427 1426 1425 1424 1423 1421 1420 1419 1417 1416 1415 1414 1412 1411 1410 1408 1407 1406 1405 1404 1402 1401 1400 1399 1398 1397 1396 1396 1395 1394 1393 1393 1392 1391 1391 1391 1391 1391 1391 1391 1391
1471 1470 1470 1469 1468 1466 1465 1464 1463 1461 1460 1458 1457 1456 1455 1454 1453 1452 1451 1450 1449 1448 1447 1446 1446 1445 1444 1443 1442 1441 1440 1439 1438 1437 1436 1435 1434 1433 1432 1431 1430 1429 1428 1427 1426 1426 1424 1423 1422 1421 1419 1418 1416 1415 1414 1413 1411 1410 1409 1408 1406 1405 1404 1403 1401 1400 1399 1398 1397 1396 1395 1394 1393 1392 1391 1391 1390 1389 1389 1388 1388 1388 1388 1387 1387 1387
1469 1469 1468 1467 1465 1464 1462 1462 1461 1460 1459 1457 1456 1454 1453 1452 1451 1451 1450 1449 1448 1446 1445 1444 1443 1442 1442 1441 1440 1439 1438 1437 1436 1435 1434 1433 1432 1431 1430 1429 1428 1427 1426 1426 1425 1424 1422 1421 1420 1419 1417 1416 1415 1413 1412 1411 1409 1408 1407 1406 1404 1403 1402 1401 1400 1398 1397 1396 1395 1394 1392 1391 1390 1389 1388 1388 1387 1386 1386 1385 1385 1384 1384 1384 1384 1384
1468 1466 1465 1464 1463 1462 1460 1460 1459 1459 1458 1457 1456 1454 1452 1451 1449 1449 1448 1447 1446 1445 1444 1442 1441 1440 1439 1439 1438 1437 1436 1435 1434 1433 1432 1431 1430 1429 1428 1427 1426 1425 1424 1423 1422 1421 1421 1419 1418 1417 1415 1414 1413 1411 1410 1409 1407 1406 1405 1403 1402 1401 1400 1399 1397 1396 1395 1394 1393 1391 1390 1389 1388 1387 1386 1385 1384 1384 1383 1382 1381 1381 1381 1380 1380 1380
1466 1465 1464 1463 1462 1461 1460 1459 1458 1458 1457 1456 1455 1454 1452 1451 1448 1446 1445 1444 1444 1443 1442 1441 1439 1438 1436 1436 1436 1435 1434 1432 1432 1431 1431 1429 1428 1427 1426 1425 1424 1423 1422 1421 1420 1419 1418 1417 1416 1415 1413 1412 1411 1409 1408 1406 1405 1404 1402 1401 1400 1399 1398 1396 1395 1394 1393 1391 1390 1389 1388 1387 1386 1385 1384 1383 1382 1381 1380 1380 1379 1378 1377 1377 1376 1376
1465 1464 1463 1462 1461 1461 1460 1459 1458 1457 1456 1455 1454 1453 1452 1451 1448 1446 1443 1441 1441 1441 1440 1439 1438 1437 1435 1433 1433 1433 1432 1431 1429 1429 1428 1427 1426 1425 1424 1423 1421 1421 1420 1419 1418 1417 1416 1416 1414 1413 1411 1410 1408 1407 1406 1404 1403 1401 1400 1399 1398 1397 1395 1394 1393 1391 1391 1389 1388 1387 1386 1385 1383 1382 1381 1380 1379 1378 1377 1377 1376 1375 1374 1374 1373 1373
1464 1463 1462 1461 1460 1459 1459 1458 1457 1456 1455 1454 1452 1451 1450 1449 1448 1446 1444 1441 1440 1438 1437 1437 1436 1436 1435 1433 1431 1430 1430 1429 1428 1426 1426 1425 1424 1423 1421 1420 1419 1418 1417 1416 1416 1415 1414 1413 1412 1411 1409 1408 1406 1405 1403 1402 1401 1399 1398 1397 1396 1395 1393 1392 1391 1389 1388 1387 1386 1385 1383 1382 1381 1380 1379 1377 1376 1376 1375 1374 1373 1372 1371 1371 1370 1370
1463 1462 1461 1460 1459 1458 1457 1456 1455 1454 1453 1453 1451 1450 1449 1447 1447 1446 1444 1442 1440 1439 1437 1435 1434 1433 1433 1433 1431 1430 1428 1427 1426 1425 1424 1423 1422 1421 1420 1418 1417 1416 1415 1414 1413 1412 1412 1411 1409 1408 1407 1405 1404 1402 1401 1400 1398 1397 1396 1395 1394 1392 1391 1390 1388 1387 1386 1385 1383 1382 1381 1380 1378 1377 1376 1375 1374 1373 1372 1371 1370 1369 1369 1368 1367 1367
1462 1461 1460 1459 1458 1457 1456 1455 1454 1453 1452 1451 1451 1450 1448 1447 1446 1444 1443 1441 1440 1438 1437 1435 1433 1432 1431 1431 1431 1430 1428 1427 1425 1423 1422 1421 1420 1420 1418 1416 1415 1414 1414 1412 1411 1410 1410 1409 1407 1405 1404 1403 1402 1400 1399 1397 1396 1395 1394 1393 1391 1390 1389 1388 1386 1385 1384 1382 1381 1380 1379 1377 1376 1375 1374 1373 1372 1371 1369 1368 1367 1366 1366 1365 1365 1364
1461 1459 1458 1457 1456 1456 1455 1454 1453 1452 1451 1451 1450 1448 1447 1446 1445 1444 1442 1440 1439 1437 1436 1434 1432 1431 1431 1431 1430 1429 1428 1426 1424 1422 1420 1419 1418 1418 1417 1415 1413 1412 1412 1411 1409 1407 1407 1406 1405 1403 1402 1401 1400 1398 1397 1395 1394 1393 1392 1391 1390 1388 1387 1386 1384 1383 1381 1380 1379 1378 1376 1375 1374 1373 1371 1371 1369 1368 1367 1366 1365 1364 1363 1362 1361 1361
1460 1459 1457 1456 1455 1455 1454 1454 1453 1451 1450 1449 1449 1448 1446 1445 1444 1443 1442 1441 1438 1436 1435 1433 1431 1428 1427 1428 1429 1429 1427 1425 1423 1421 1420 1416 1416 1416 1416 1414 1411 1409 1409 1408 1407 1406 1405 1404 1403 1401 1400 1399 1397 1396 1395 1394 1392 1391 1390 1389 1388 1386 1385 1384 1382 1381 1379 1378 1376 1375 1374 1373 1371 1370 1369 1368 1366 1365 1364 1363 1362 1361 1360 1359 1358 1358
1458 1457 1456 1455 1454 1453 1453 1452 1452 1451 1450 1449 1448 1447 1447 1446 1444 1443 1442 1440 1439 1437 1436 1434 1432 1429 1425 1424 1425 1426 1426 1424 1421 1420 1418 1415 1413 1413 1414 1412 1410 1407 1406 1406 1405 1403 1402 1401 1400 1399 1398 1397 1396 1394 1393 1392 1391 1390 1388 1387 1386 1384 1383 1381 1380 1379 1377 1376 1374 1373 1372 1370 1369 1368 1366 1365 1364 1362 1361 1360 1358 1358 1357 1356 1355 1355
1457 1456 1456 1455 1453 1452 1452 1451 1451 1450 1449 1448 1447 1446 1446 1445 1444 1443 1441 1440 1439 1437 1435 1434 1433 1431 1428 1424 1422 1423 1424 1423 1420 1418 1416 1413 1411 1411 1411 1410 1408 1406 1404 1403 1402 1401 1401 1399 1398 1397 1396 1395 1394 1393 1391 1390 1389 1388 1386 1385 1384 1382 1381 1379 1378 1376 1375 1374 1373 1371 1370 1368 1366 1365 1364 1362 1361 1360 1358 1356 1355 1354 1353 1353 1352 1351
1456 1456 1455 1454 1453 1452 1451 1451 1450 1449 1448 1448 1446 1446 1444 1444 1443 1442 1441 1439 1438 1437 1435 1433 1431 1430 1428 1425 1422 1421 1422 1421 1420 1417 1415 1412 1409 1408 1408 1408 1406 1404 1402 1401 1400 1399 1398 1397 1396 1395 1394 1393 1392 1391 1390 1388 1387 1386 1384 1383 1381 1380 1379 1377 1376 1374 1373 1372 1371 1369 1368 1366 1365 1363 1361 1360 1358 1356 1355 1353 1352 1351 1350 1349 1348 1347
1456 1455 1455 1454 1453 1451 1450 1450 1450 1449 1448 1447 1446 1445 1444 1442 1441 1440 1439 1438 1436 1436 1434 1432 1430 1428 1426 1423 1421 1420 1421 1421 1419 1416 1414 1411 1408 1406 1406 1406 1404 1402 1400 1399 1398 1397 1396 1395 1394 1393 1392 1391 1390 1389 1387 1386 1385 1384 1382 1381 1379 1378 1376 1375 1373 1372 1371 1370 1368 1367 1365 1363 1362 1360 1358 1357 1355 1354 1352 1351 1349 1347 1346 1345 1344 1344
1455 1454 1454 1453 1452 1451 1450 1449 1449 1449 1448 1447 1446 1444 1443 1441 1439 1438 1437 1436 1435 1433 1432 1431 1428 1426 1425 1422 1420 1419 1420 1420 1418 1416 1412 1409 1407 1405 1405 1404 1403 1401 1398 1396 1396 1395 1394 1393 1391 1390 1389 1388 1387 1386 1385 1384 1383 1381 1380 1378 1377 1376 1374 1372 1371 1370 1368 1367 1366 1364 1362 1361 1359 1357 1356 1354 1352 1351 1349 1348 1346 1344 1342 1341 1340 1340
1454 1453 1453 1452 1452 1451 1449 1448 1448 1448 1447 1446 1445 1443 1441 1440 1438 1436 1435 1434 1433 1431 1430 1428 1426 1425 1423 1421 1419 1418 1418 1418 1417 1415 1412 1408 1405 1403 1403 1403 1401 1399 1397 1395 1393 1393 1392 1391 1389 1388 1387 1386 1385 1384 1383 1381 1380 1379 1377 1376 1374 1373 1371 1370 1369 1367 1366 1365 1363 1361 1360 1358 1356 1354 1352 1351 1349 1348 1346 1345 1343 1341 1339 1338 1337 1336
1453 1452 1451 1451 1451 1450 1449 1448 1447 1447 1446 1445 1443 1442 1440 1439 1437 1436 1434 1433 1431 1430 1428 1426 1424 1423 1421 1420 1418 1416 1416 1416 1416 1414 1412 1409 1405 1402 1401 1401 1400 1398 1395 1393 1392 1391 1390 1389 1387 1386 1385 1384 1382 1381 1380 1379 1377 1376 1375 1373 1371 1370 1369 1367 1366 1365 1363 1362 1360 1358 1356 1355 1353 1351 1349 1348 1346 1345 1343 1342 1340 1338 1336 1335 1333 1333
1452 1451 1451 1450 1450 1449 1448 1448 1446 1445 1444 1443 1442 1440 1439 1438 1436 1435 1433 1431 1430 1428 1426 1424 1422 1420 1419 1417 1416 1415 1415 1415 1415 1414 1411 1408 1405 1401 1400 1400 1399 1396 1394 1392 1391 1390 1388 1386 1385 1383 1382 1381 1380 1379 1378 1376 1375 1373 1372 1370 1369 1367 1366 1365 1363 1362 1360 1359 1357 1355 1353 1351 1350 1348 1346 1345 1343 1342 1340 1339 1337 1335 1334 1332 1330 1329
1451 1451 1450 1449 1449 1448 1447 1446 1445 1444 1442 1441 1440 1438 1437 1436 1434 1432 1431 1430 1428 1427 1425 1423 1421 1419 1416 1415 1414 1413 1413 1414 1414 1413 1411 1407 1404 1401 1399 1399 1398 1395 1392 1390 1389 1388 1386 1384 1382 1381 1380 1379 1377 1376 1375 1374 1372 1370 1369 1367 1366 1365 1363 1362 1360 1359 1357 1356 1354 1352 1350 1348 1347 1345 1344 1342 1341 1339 1337 1336 1334 1332 1331 1329 1327 1326
1450 1449 1448 1447 1447 1446 1445 1444 1443 1442 1441 1440 1438 1436 1435 1433 1432 1430 1429 1428 1427 1426 1424 1422 1420 1418 1416 1415 1413 1412 1411 1412 1412 1411 1409 1406 1402 1399 1397 1397 1397 1394 1391 1388 1387 1386 1384 1382 1380 1379 1377 1376 1375 1374 1372 1371 1369 1368 1366 1365 1363 1362 1361 1359 1357 1356 1354 1352 1351 1349 1347 1345 1344 1342 1341 1339 1337 1336 1334 1333 1331 1329 1328 1326 1324 1322
1448 1447 1446 1446 1445 1444 1443 1442 1441 1440 1439 1438 1437 1435 1433 1432 1430 1429 1427 1426 1426 1425 1423 1421 1419 1416 1415 1414 1412 1410 1410 1409 1409 1409 1408 1406 1402 1398 1396 1396 1395 1393 1390 1387 1385 1384 1383 1381 1379 1377 1375 1374 1372 1371 1369 1368 1366 1365 1364 1362 1361 1359 1357 1356 1354 1353 1351 1350 1348 1346 1344 1342 1341 1339 1337 1336 1335 1333 1331 1330 1328 1326 1325 1323 1321 1319
1446 1446 1445 1444 1443 1442 1441 1440 1439 1438 1437 1436 1435 1434 1432 1431 1429 1427 1426 1425 1425 1424 1423 1421 1419 1416 1414 1412 1410 1408 1407 1407 1407 1406 1406 1404 1401 1398 1395 1395 1394 1392 1390 1386 1383 1381 1381 1379 1377 1375 1373 1371 1370 1368 1366 1365 1364 1362 1361 1359 1358 1356 1355 1353 1352 1350 1348 1346 1345 1343 1341 1339 1338 1336 1335 1333 1332 1330 1329 1327 1326 1324 1322 1320 1318 1316
1445 1444 1443 1442 1441 1440 1439 1438 1437 1436 1435 1434 1433 1432 1431 1430 1428 1427 1425 1424 1424 1423 1421 1420 1418 1416 1413 1411 1408 1406 1405 1405 1405 1405 1405 1403 1400 1396 1395 1394 1393 1391 1389 1386 1382 1378 1376 1376 1375 1374 1372 1370 1368 1366 1364 1363 1361 1360 1358 1356 1355 1353 1352 1351 1349 1347 1346 1344 1342 1340 1338 1336 1335 1333 1332 1331 1329 1328 1326 1325 1323 1321 1320 1318 1316 1314
1443 1442 1441 1441 1440 1438 1437 1436 1435 1435 1434 1433 1431 1431 1430 1428 1427 1426 1425 1424 1423 1421 1420 1418 1416 1415 1412 1410 1407 1404 1403 1403 1404 1405 1404 1402 1399 1396 1394 1393 1392 1391 1389 1386 1382 1377 1372 1371 1371 1371 1371 1369 1366 1364 1362 1361 1359 1357 1356 1354 1352 1351 1349 1348 1346 1345 1343 1341 1339 1337 1336 1334 1332 1331 1329 1328 1326 1325 1324 1322 1321 1320 1318 1316 1314 1311
1441 1440 1439 1439 1438 1437 1436 1435 1434 1433 1432 1431 1430 1429 1428 1427 1426 1425 1424 1423 1421 1420 1418 1416 1415 1413 1411 1410 1408 1405 1401 1401 1402 1403 1402 1401 1398 1395 1394 1392 1391 1389 1389 1388 1385 1380 1373 1368 1366 1367 1368 1367 1365 1362 1361 1359 1357 1355 1353 1352 1350 1348 1346 1345 1344 1342 1340 1338 1337 1335 1333 1331 1330 1328 1327 1326 1324 1323 1321 1320 1319 1317 1316 1314 1311 1309
1439 1438 1438 1437 1436 1435 1434 1433 1432 1431 1430 1429 1428 1427 1426 1425 1424 1423 1422 1421 1420 1419 1417 1415 1413 1412 1411 1410 1408 1405 1401 1400 1401 1401 1401 1400 1397 1394 1392 1391 1389 1387 1386 1386 1385 1382 1377 1370 1365 1363 1364 1363 1362 1360 1359 1357 1356 1354 1352 1350 1348 1346 1344 1343 1341 1340 1338 1336 1334 1332 1331 1329 1328 1326 1325 1323 1322 1320 1319 1318 1317 1316 1314 1312 1310 1307
1438 1437 1436 1435 1434 1433 1432 1431 1430 1429 1428 1427 1426 1425 1424 1424 1423 1422 1421 1420 1419 1417 1416 1414 1412 1410 1409 1407 1406 1403 1401 1400 1400 1400 1400 1399 1396 1392 1390 1389 1387 1385 1384 1383 1382 1381 1378 1373 1368 1364 1361 1361 1360 1358 1357 1356 1355 1353 1351 1349 1346 1344 1343 1341 1340 1338 1336 1334 1332 1330 1328 1327 1325 1324 1322 1321 1319 1318 1317 1316 1314 1313 1312 1311 1308 1306
1436 1436 1435 1433 1432 1431 1431 1429 1428 1427 1426 1426 1425 1424 1423 1422 1421 1420 1419 1418 1417 1416 1415 1413 1411 1409 1407 1405 1403 1401 1400 1399 1399 1399 1398 1397 1394 1391 1389 1387 1386 1384 1382 1381 1379 1377 1375 1372 1369 1366 1362 1359 1357 1356 1355 1354 1353 1351 1350 1348 1346 1343 1341 1340 1338 1336 1334 1332 1330 1328 1326 1324 1323 1321 1320 1319 1317 1316 1315 1313 1312 1311 1310 1309 1307 1305
1435 1434 1433 1432 1431 1430 1429 1428 1427 1426 1425 1424 1423 1422 1421 1421 1420 1419 1418 1416 1416 1414 1413 1412 1410 1408 1406 1405 1402 1400 1397 1396 1397 1397 1396 1395 1393 1391 1388 1386 1385 1383 1382 1379 1377 1376 1373 1370 1368 1366 1363 1359 1356 1354 1353 1352 1351 1350 1348 1346 1344 1342 1340 1338 1336 1334 1332 1330 1328 1326 1324 1322 1321 1319 1318 1316 1315 1314 1312 1311 1310 1309 1308 1306 1305 1303
1434 1432 1431 1430 1429 1428 1427 1426 1425 1424 1423 1422 1421 1421 1420 1419 1418 1417 1416 1415 1414 1412 1411 1410 1408 1407 1405 1403 1401 1399 1396 1395 1395 1395 1395 1394 1392 1390 1388 1385 1384 1383 1381 1379 1377 1375 1372 1369 1367 1365 1363 1360 1356 1353 1351 1351 1350 1348 1346 1344 1342 1341 1338 1337 1335 1333 1331 1328 1326 1324 1322 1321 1319 1318 1316 1315 1313 1312 1311 1309 1308 1306 1305 1304 1302 1301
1432 1431 1430 1429 1427 1426 1425 1424 1423 1422 1421 1420 1420 1419 1418 1417 1416 1415 1414 1412 1411 1410 1409 1407 1406 1405 1403 1401 1400 1397 1395 1394 1393 1393 1393 1392 1391 1389 1387 1384 1382 1382 1381 1379 1376 1374 1372 1370 1366 1364 1362 1360 1357 1354 1351 1349 1347 1346 1344 1342 1340 1338 1336 1335 1333 1332 1330 1327 1325 1323 1321 1320 1318 1316 1314 1313 1311 1310 1309 1307 1306 1304 1303 1301 1300 1298
1431 1430 1428 1427 1426 1425 1424 1423 1421 1421 1420 1418 1417 1416 1416 1414 1413 1412 1411 1410 1409 1407 1406 1405 1403 1402 1401 1400 1398 1396 1394 1393 1392 1391 1391 1390 1388 1387 1386 1383 1381 1380 1379 1378 1376 1374 1372 1370 1367 1364 1361 1359 1356 1354 1351 1349 1346 1344 1341 1340 1338 1336 1334 1333 1332 1330 1329 1326 1324 1322 1320 1319 1317 1315 1313 1311 1310 1308 1307 1305 1304 1302 1301 1299 1297 1296
1430 1428 1427 1426 1425 1424 1422 1421 1420 1419 1418 1417 1416 1414 1413 1412 1411 1410 1408 1407 1406 1405 1404 1402 1401 1399 1398 1397 1396 1394 1393 1391 1390 1389 1388 1387 1386 1385 1384 1382 1380 1378 1377 1376 1375 1373 1372 1369 1367 1364 1361 1358 1355 1352 1350 1348 1346 1343 1341 1338 1336 1334 1333 1332 1331 1329 1327 1325 1323 1321 1319 1317 1316 1314 1312 1310 1308 1307 1306 1304 1302 1301 1300 1297 1295 1293
1429 1427 1426 1425 1424 1423 1421 1420 1419 1417 1416 1415 1414 1412 1411 1410 1409 1408 1407 1406 1405 1403 1402 1401 1399 1397 1396 1394 1393 1391 1390 1389 1388 1387 1386 1385 1384 1383 1382 1380 1378 1376 1375 1374 1373 1372 1370 1368 1366 1363 1361 1358 1355 1351 1349 1347 1345 1343 1341 1338 1335 1332 1331 1330 1329 1327 1326 1324 1322 1320 1318 1316 1314 1313 1311 1309 1308 1306 1305 1303 1302 1300 1299 1297 1294 1292
1428 1426 1426 1424 1423 1422 1421 1419 1418 1416 1415 1413 1412 1411 1410 1409 1407 1406 1405 1404 1402 1401 1400 1398 1396 1395 1393 1392 1391 1389 1388 1386 1386 1385 1384 1383 1382 1381 1380 1378 1377 1375 1374 1372 1371 1369 1368 1366 1364 1361 1359 1356 1354 1351 1348 1346 1344 1343 1341 1339 1335 1332 1329 1328 1327 1326 1324 1323 1321 1320 1317 1315 1313 1311 1310 1308 1306 1306 1304 1303 1301 1300 1298 1296 1295 1293
1427 1426 1425 1423 1422 1421 1419 1418 1416 1415 1413 1412 1411 1410 1409 1408 1406 1405 1403 1401 1400 1399 1398 1396 1394 1392 1390 1389 1388 1387 1386 1385 1384 1383 1382 1381 1380 1379 1378 1377 1375 1374 1372 1370 1368 1366 1365 1364 1362 1360 1357 1355 1353 1350 1347 1344 1342 1341 1340 1338 1335 1331 1329 1326 1326 1325 1323 1321 1320 1318 1317 1315 1312 1310 1308 1307 1306 1304 1303 1302 1301 1299 1297 1296 1294 1293
1426 1425 1424 1422 1421 1419 1418 1416 1415 1413 1412 1411 1410 1409 1408 1407 1406 1404 1402 1401 1399 1398 1396 1395 1393 1391 1388 1386 1385 1385 1384 1383 1382 1381 1380 1379 1378 1377 1376 1375 1373 1372 1371 1369 1366 1364 1362 1361 1360 1358 1356 1354 1352 1350 1346 1343 1341 1339 1338 1336 1335 1332 1329 1325 1324 1323 1322 1320 1319 1317 1316 1314 1312 1310 1308 1306 1304 1303 1302 1301 1300 1298 1297 1295 1294 1292
1425 1424 1422 1421 1419 1418 1416 1415 1414 1412 1411 1410 1409 1408 1407 1406 1405 1403 1401 1400 1398 1396 1395 1393 1392 1390 1387 1385 1383 1382 1381 1381 1381 1380 1378 1377 1376 1375 1374 1373 1371 1370 1369 1367 1365 1363 1361 1359 1357 1355 1354 1352 1351 1348 1345 1342 1340 1338 1336 1335 1334 1332 1330 1326 1323 1321 1320 1319 1317 1316 1315 1313 1311 1309 1306 1304 1303 1301 1301 1299 1298 1297 1296 1295 1293 1292
1424 1422 1421 1420 1418 1417 1416 1414 1413 1411 1410 1409 1408 1406 1406 1405 1404 1402 1401 1399 1397 1395 1394 1392 1391 1389 1386 1384 1382 1381 1379 1378 1378 1377 1376 1376 1375 1373 1372 1371 1369 1368 1366 1365 1364 1362 1360 1357 1355 1353 1351 1350 1349 1346 1344 1341 1339 1337 1335 1333 1332 1331 1328 1326 1324 1322 1320 1318 1316 1315 1314 1312 1310 1308 1305 1303 1301 1300 1299 1298 1297 1296 1295 1294 1293 1292
1423 1421 1420 1419 1418 1416 1415 1413 1412 1411 1409 1408 1406 1406 1404 1403 1402 1401 1400 1398 1396 1394 1393 1392 1391 1388 1386 1383 1381 1379 1377 1376 1376 1375 1375 1374 1373 1372 1371 1369 1368 1366 1365 1363 1361 1360 1359 1356 1354 1352 1350 1348 1346 1344 1342 1340 1338 1336 1333 1332 1330 1328 1326 1324 1323 1321 1320 1318 1316 1314 1312 1311 1309 1307 1304 1302 1300 1299 1298 1297 1296 1295 1294 1293 1292 1291
1422 1421 1420 1418 1417 1416 1414 1413 1411 1410 1408 1407 1406 1404 1403 1402 1401 1400 1398 1397 1396 1394 1392 1391 1389 1387 1385 1383 1381 1379 1377 1375 1373 1373 1373 1372 1371 1371 1369 1368 1366 1365 1363 1361 1360 1358 1356 1354 1353 1351 1349 1347 1344 1341 1339 1338 1336 1335 1332 1331 1329 1327 1325 1323 1321 1320 1319 1317 1315 1313 1311 1310 1308 1306 1304 1301 1299 1297 1296 1296 1295 1294 1293 1292 1291 1290
1422 1421 1419 1418 1416 1415 1413 1412 1410 1409 1407 1406 1405 1403 1402 1401 1400 1399 1397 1396 1395 1393 1391 1390 1388 1386 1384 1382 1381 1379 1377 1375 1373 1371 1371 1370 1370 1369 1368 1366 1365 1363 1361 1360 1357 1356 1353 1351 1350 1349 1347 1346 1343 1340 1337 1336 1335 1333 1331 1330 1328 1326 1324 1321 1320 1318 1317 1316 1314 1312 1311 1309 1308 1306 1303 1301 1299 1297 1295 1295 1294 1293 1293 1292 1291 1290
1421 1420 1418 1417 1415 1414 1412 1411 1410 1408 1406 1405 1403 1402 1401 1400 1399 1398 1397 1395 1394 1392 1391 1389 1387 1385 1383 1381 1379 1378 1376 1374 1372 1371 1369 1368 1367 1366 1365 1364 1362 1360 1358 1356 1354 1352 1350 1348 1347 1346 1345 1343 1341 1339 1336 1334 1333 1331 1330 1329 1327 1326 1323 1321 1319 1317 1316 1314 1312 1311 1310 1309 1307 1306 1304 1302 1299 1297 1295 1294 1293 1292 1292 1291 1290 1289
1420 1419 1417 1416 1415 1413 1411 1410 1409 1407 1406 1404 1403 1401 1400 1399 1398 1397 1396 1394 1392 1391 1389 1388 1386 1384 1382 1380 1378 1377 1375 1373 1371 1369 1368 1367 1366 1364 1362 1361 1359 1357 1355 1352 1350 1348 1346 1344 1343 1342 1342 1341 1340 1338 1336 1333 1331 1330 1329 1327 1326 1325 1322 1320 1317 1316 1314 1313 1311 1309 1308 1307 1306 1305 1304 1302 1300 1297 1296 1294 1292 1292 1291 1290 1289 1288
1419 1418 1416 1415 1414 1412 1411 1410 1408 1406 1405 1403 1402 1401 1399 1397 1396 1395 1394 1392 1391 1390 1388 1386 1385 1383 1381 1379 1377 1376 1374 1372 1370 1368 1367 1366 1364 1363 1361 1360 1358 1356 1353 1351 1348 1346 1344 1341 1339 1338 1338 1339 1339 1338 1336 1334 1331 1330 1327 1326 1324 1323 1321 1319 1316 1315 1313 1311 1310 1308 1307 1306 1304 1304 1303 1302 1300 1298 1296 1294 1292 1291 1290 1289 1288 1287